TimeCDT,TemperatureF,Dew PointF,Humidity,Sea Level PressureIn,VisibilityMPH,Wind Direction,Wind SpeedMPH,Gust SpeedMPH,PrecipitationIn,Events,Conditions,WindDirDegrees,DateUTC
12:53 AM,54.0,45.0,72,30.17,10.0,NNW,3.5,-,N/A,,Mostly Cloudy,330,2012-04-09 05:53:00
1:53 AM,53.1,43.0,69,30.15,10.0,North,5.8,-,N/A,,Mostly Cloudy,360,2012-04-09 06:53:00
2:53 AM,50.0,44.1,80,30.14,10.0,Calm,Calm,-,N/A,,Mostly Cloudy,0,2012-04-09 07:53:00
3:53 AM,48.0,42.1,80,30.14,10.0,NNE,3.5,-,N/A,,Partly Cloudy,30,2012-04-09 08:53:00
4:53 AM,46.9,41.0,80,30.14,10.0,Calm,Calm,-,N/A,,Clear,0,2012-04-09 09:53:00
5:53 AM,48.0,39.0,71,30.14,10.0,NE,4.6,-,N/A,,Clear,50,2012-04-09 10:53:00
6:53 AM,45.0,41.0,86,30.15,10.0,WNW,3.5,-,N/A,,Clear,300,2012-04-09 11:53:00
7:53 AM,50.0,43.0,77,30.16,10.0,Calm,Calm,-,N/A,,Clear,0,2012-04-09 12:53:00
8:53 AM,55.9,44.1,64,30.17,10.0,WNW,3.5,-,N/A,,Clear,290,2012-04-09 13:53:00
9:53 AM,61.0,41.0,48,30.18,10.0,Variable,3.5,-,N/A,,Clear,0,2012-04-09 14:53:00
10:53 AM,66.0,37.9,36,30.18,10.0,Variable,4.6,-,N/A,,Clear,0,2012-04-09 15:53:00
11:53 AM,68.0,37.0,32,30.17,10.0,Variable,3.5,-,N/A,,Clear,0,2012-04-09 16:53:00
12:53 PM,71.1,39.0,31,30.15,10.0,North,8.1,-,N/A,,Clear,350,2012-04-09 17:53:00
1:53 PM,73.0,37.0,27,30.13,10.0,NW,6.9,-,N/A,,Clear,320,2012-04-09 18:53:00
2:53 PM,72.0,39.9,31,30.12,10.0,West,8.1,-,N/A,,Clear,280,2012-04-09 19:53:00
3:53 PM,73.9,37.0,26,30.09,10.0,NW,10.4,-,N/A,,Clear,310,2012-04-09 20:53:00
4:53 PM,73.0,37.0,27,30.07,10.0,WNW,9.2,-,N/A,,Clear,290,2012-04-09 21:53:00
5:53 PM,73.0,37.9,28,30.06,10.0,WNW,8.1,-,N/A,,Clear,290,2012-04-09 22:53:00
6:53 PM,69.1,41.0,36,30.06,10.0,WNW,3.5,-,N/A,,Clear,290,2012-04-09 23:53:00
7:53 PM,64.9,43.0,45,30.06,10.0,WNW,3.5,-,N/A,,Clear,300,2012-04-10 00:53:00
8:53 PM,62.1,46.0,56,30.07,10.0,Calm,Calm,-,N/A,,Clear,0,2012-04-10 01:53:00
9:53 PM,57.9,46.9,67,30.09,10.0,Calm,Calm,-,N/A,,Clear,0,2012-04-10 02:53:00
10:53 PM,55.0,46.9,74,30.09,10.0,Calm,Calm,-,N/A,,Clear,0,2012-04-10 03:53:00
11:53 PM,54.0,46.9,77,30.09,10.0,Calm,Calm,-,N/A,,Clear,0,2012-04-10 04:53:00